This is the latest recevied weather packets stored in our database for station/object G4KVI. If no packets are shown the sender has not sent any weather packets the latest 10 day(s).
| Time | Temp. | Humidity | Pressure | Rain* | Wind** | Luminosity | Snow |
|---|---|---|---|---|---|---|---|
| 1787847904 | 23.89° C | 53% | 1009.3 hPa | 0 mm | - | 290 W/m² | - |
| 1787847604 | 23.89° C | 53% | 1009.4 hPa | 0 mm | - | 303 W/m² | - |
| 1787847304 | 23.89° C | 53% | 1009.2 hPa | 0 mm | - | 314 W/m² | - |
| 1787847004 | 23.89° C | 52% | 1009.4 hPa | 0 mm | - | 325 W/m² | - |
| 1787846704 | 23.33° C | 55% | 1009.4 hPa | 0 mm | - | 337 W/m² | - |
| 1787846404 | 23.89° C | 55% | 1009.4 hPa | 0 mm | - | 352 W/m² | - |
| 1787846104 | 23.89° C | 55% | 1009.5 hPa | 0 mm | - | 374 W/m² | - |
| 1787845804 | 24.44° C | 53% | 1009.4 hPa | 0 mm | - | 371 W/m² | - |
| 1787845504 | 24.44° C | 53% | 1009.4 hPa | 0 mm | - | 382 W/m² | - |
| 1787845204 | 24.44° C | 54% | 1009.7 hPa | 0 mm | - | 393 W/m² | - |
| 1787844904 | 24.44° C | 55% | 1009.6 hPa | 0 mm | - | 407 W/m² | - |
| 1787844604 | 24.44° C | 53% | 1009.6 hPa | 0 mm | - | 420 W/m² | - |
| 1787844304 | 25° C | 52% | 1009.3 hPa | 0 mm | - | 433 W/m² | - |
| 1787844004 | 25° C | 54% | 1009.4 hPa | 0 mm | - | 449 W/m² | - |
| 1787843704 | 25° C | 53% | 1009.5 hPa | 0 mm | - | 457 W/m² | - |
| 1787843404 | 25° C | 50% | 1009.2 hPa | 0 mm | - | 471 W/m² | - |
| 1787843104 | 25.56° C | 52% | 1009.3 hPa | 0 mm | - | 486 W/m² | - |
| 1787842804 | 25° C | 53% | 1009 hPa | 0 mm | - | 504 W/m² | - |
| 1787842504 | 24.44° C | 54% | 1008.8 hPa | 0 mm | - | 524 W/m² | - |
| 1787842204 | 24.44° C | 53% | 1009 hPa | 0 mm | - | 555 W/m² | - |
| 1787841904 | 25° C | 53% | 1009 hPa | 0 mm | - | 585 W/m² | - |
| 1787841604 | 24.44° C | 56% | 1009 hPa | 0 mm | - | 620 W/m² | - |
| 1787841304 | 25° C | 55% | 1009 hPa | 0 mm | - | 641 W/m² | - |
| 1787841004 | 25° C | 55% | 1009.5 hPa | 0 mm | - | 620 W/m² | - |
| 1787840704 | 25.56° C | 55% | 1009.5 hPa | 0 mm | - | 271 W/m² | - |
* Rain latest hour (hover to see other rain measurements)
** Current wind speed in m/s (hover to see current wind gust speed)